When you browse on this site, cookies collect data to enhance your experience and personalize the content and advertising you see.
Visit our Privacy Policy to learn more. By continuing to use the site, you agree to this use of cookies and data.
  • In Belgien
  • Länderverzeichnis
  • Für 7 Tage
  • Wassertemperatur
  • Satellitenkarten
  • Wetterkarte
  • Widgets
  • user-avatar
    Anmelden

    Stündliche Wetter Galata

    Heute, 21 Juli, Sonntag

    Zeit Temperatur Niederschläge Wind Luftdruck Luftfeuchtigkeit
    00:00 +21°C° 0 mm 1 m/S 758 mmHg 80%
    01:00 +21°C° 0 mm 1 m/S 758 mmHg 80%
    02:00 +20°C° 0 mm 1 m/S 758 mmHg 81%
    03:00 +21°C° 0 mm 1 m/S 758 mmHg 78%
    04:00 +21°C° 0 mm 1 m/S 757 mmHg 75%
    05:00 +21°C° 0 mm 1 m/S 757 mmHg 72%
    06:00 +23°C° 0 mm 1 m/S 758 mmHg 64%
    07:00 +25°C° 0 mm 1 m/S 758 mmHg 56%
    08:00 +27°C° 0 mm 1 m/S 758 mmHg 48%
    09:00 +28°C° 0 mm 1 m/S 758 mmHg 45%
    10:00 +30°C° 0 mm 2 m/S 758 mmHg 42%
    11:00 +31°C° 0 mm 2 m/S 758 mmHg 39%
    12:00 +31°C° 0 mm 3 m/S 758 mmHg 39%
    13:00 +31°C° 0 mm 3 m/S 758 mmHg 39%
    14:00 +32°C° 0 mm 4 m/S 757 mmHg 40%
    15:00 +30°C° 0 mm 3 m/S 757 mmHg 40%
    16:00 +30°C° 0 mm 3 m/S 757 mmHg 41%
    17:00 +30°C° 0 mm 3 m/S 757 mmHg 42%
    18:00 +27°C° 0 mm 3 m/S 757 mmHg 49%
    19:00 +25°C° 0 mm 2 m/S 757 mmHg 57%
    20:00 +23°C° 0 mm 2 m/S 757 mmHg 65%
    21:00 +23°C° 0 mm 1 m/S 757 mmHg 66%
    22:00 +22°C° 0 mm 1 m/S 757 mmHg 66%
    23:00 +22°C° 0 mm 1 m/S 758 mmHg 67%

    Morgen, 22 Juli, Montag

    Zeit Temperatur Niederschläge Wind Luftdruck Luftfeuchtigkeit
    00:00 +22°C° 0 mm 1 m/S 758 mmHg 63%
    01:00 +21°C° 0 mm 2 m/S 757 mmHg 58%
    02:00 +21°C° 0 mm 2 m/S 757 mmHg 53%
    03:00 +21°C° 0 mm 2 m/S 757 mmHg 51%
    04:00 +22°C° 0 mm 1 m/S 757 mmHg 49%
    05:00 +22°C° 0 mm 1 m/S 757 mmHg 47%
    06:00 +25°C° 0 mm 1 m/S 757 mmHg 43%
    07:00 +27°C° 0 mm 1 m/S 757 mmHg 40%
    08:00 +30°C° 0 mm 1 m/S 757 mmHg 36%
    09:00 +31°C° 0 mm 1 m/S 757 mmHg 33%
    10:00 +32°C° 0 mm 2 m/S 757 mmHg 31%
    11:00 +34°C° 0 mm 2 m/S 757 mmHg 29%
    12:00 +34°C° 0 mm 3 m/S 757 mmHg 29%
    13:00 +35°C° 0 mm 3 m/S 757 mmHg 28%
    14:00 +35°C° 0 mm 4 m/S 756 mmHg 28%
    15:00 +34°C° 0 mm 4 m/S 756 mmHg 30%
    16:00 +33°C° 0 mm 4 m/S 756 mmHg 32%
    17:00 +33°C° 0 mm 4 m/S 756 mmHg 33%
    18:00 +29°C° 0 mm 3 m/S 755 mmHg 40%
    19:00 +27°C° 0 mm 3 m/S 755 mmHg 47%
    20:00 +25°C° 0 mm 3 m/S 755 mmHg 54%
    21:00 +25°C° 0 mm 2 m/S 755 mmHg 53%
    22:00 +25°C° 0 mm 2 m/S 756 mmHg 51%
    23:00 +25°C° 0 mm 2 m/S 756 mmHg 50%

    übermorgen, 23 Juli, Dienstag

    Zeit Temperatur Niederschläge Wind Luftdruck Luftfeuchtigkeit
    00:00 +24°C° 0.1 mm 2 m/S 756 mmHg 56%
    01:00 +23°C° 0.1 mm 2 m/S 755 mmHg 62%
    02:00 +21°C° 0.1 mm 2 m/S 755 mmHg 69%
    03:00 +21°C° 0.3 mm 2 m/S 755 mmHg 75%
    04:00 +20°C° 0.3 mm 2 m/S 755 mmHg 81%
    05:00 +20°C° 0.3 mm 3 m/S 755 mmHg 87%
    06:00 +22°C° 0.1 mm 3 m/S 755 mmHg 83%
    07:00 +24°C° 0.1 mm 3 m/S 755 mmHg 78%
    08:00 +25°C° 0.1 mm 4 m/S 755 mmHg 74%
    09:00 +26°C° 0 mm 4 m/S 755 mmHg 68%
    10:00 +28°C° 0 mm 4 m/S 755 mmHg 63%
    11:00 +29°C° 0 mm 4 m/S 755 mmHg 57%
    12:00 +29°C° 0.7 mm 4 m/S 755 mmHg 58%
    13:00 +29°C° 0.7 mm 5 m/S 755 mmHg 59%
    14:00 +29°C° 0.7 mm 5 m/S 755 mmHg 60%
    15:00 +28°C° 0.5 mm 5 m/S 755 mmHg 60%
    16:00 +28°C° 0.5 mm 4 m/S 755 mmHg 61%
    17:00 +28°C° 0.5 mm 4 m/S 754 mmHg 62%
    18:00 +26°C° 0.2 mm 3 m/S 755 mmHg 68%
    19:00 +25°C° 0.2 mm 2 m/S 755 mmHg 73%
    20:00 +24°C° 0.2 mm 1 m/S 755 mmHg 78%
    21:00 +23°C° 0.2 mm 2 m/S 755 mmHg 77%
    22:00 +22°C° 0.2 mm 3 m/S 755 mmHg 76%
    23:00 +21°C° 0.2 mm 3 m/S 755 mmHg 74%

    24 Juli, Mittwoch

    Zeit Temperatur Niederschläge Wind Luftdruck Luftfeuchtigkeit
    00:00 +20°C° 0 mm 4 m/S 755 mmHg 76%
    01:00 +20°C° 0 mm 4 m/S 755 mmHg 77%
    02:00 +19°C° 0 mm 5 m/S 755 mmHg 79%
    03:00 +17°C° 0 mm 5 m/S 755 mmHg 79%
    04:00 +17°C° 0 mm 5 m/S 755 mmHg 80%
    05:00 +17°C° 0 mm 5 m/S 755 mmHg 80%
    06:00 +20°C° 0 mm 5 m/S 755 mmHg 72%
    07:00 +21°C° 0 mm 5 m/S 756 mmHg 64%
    08:00 +23°C° 0 mm 5 m/S 756 mmHg 56%
    09:00 +26°C° 0 mm 5 m/S 756 mmHg 50%
    10:00 +27°C° 0 mm 4 m/S 756 mmHg 44%
    11:00 +29°C° 0 mm 4 m/S 756 mmHg 38%
    12:00 +29°C° 0 mm 4 m/S 756 mmHg 37%
    13:00 +30°C° 0 mm 4 m/S 756 mmHg 36%
    14:00 +30°C° 0 mm 4 m/S 755 mmHg 35%
    15:00 +30°C° 0 mm 4 m/S 755 mmHg 37%
    16:00 +29°C° 0 mm 4 m/S 755 mmHg 39%
    17:00 +28°C° 0 mm 3 m/S 755 mmHg 40%
    18:00 +27°C° 0 mm 3 m/S 755 mmHg 48%
    19:00 +25°C° 0 mm 2 m/S 755 mmHg 55%
    20:00 +24°C° 0 mm 2 m/S 755 mmHg 62%
    21:00 +23°C° 0 mm 2 m/S 755 mmHg 63%
    22:00 +23°C° 0 mm 2 m/S 756 mmHg 63%
    23:00 +21°C° 0 mm 2 m/S 756 mmHg 63%

    25 Juli, Donnerstag

    Zeit Temperatur Niederschläge Wind Luftdruck Luftfeuchtigkeit
    00:00 +21°C° 0 mm 3 m/S 756 mmHg 65%
    01:00 +20°C° 0 mm 3 m/S 756 mmHg 66%
    02:00 +20°C° 0 mm 3 m/S 755 mmHg 68%
    03:00 +20°C° 0 mm 4 m/S 755 mmHg 72%
    04:00 +19°C° 0 mm 4 m/S 755 mmHg 76%
    05:00 +19°C° 0 mm 4 m/S 755 mmHg 80%
    06:00 +21°C° 0 mm 5 m/S 756 mmHg 72%
    07:00 +23°C° 0 mm 5 m/S 756 mmHg 64%
    08:00 +26°C° 0 mm 6 m/S 756 mmHg 56%
    09:00 +27°C° 0 mm 5 m/S 756 mmHg 51%
    10:00 +29°C° 0 mm 5 m/S 756 mmHg 46%
    11:00 +30°C° 0 mm 5 m/S 756 mmHg 40%
    12:00 +32°C° 0 mm 5 m/S 756 mmHg 39%
    13:00 +32°C° 0 mm 5 m/S 756 mmHg 37%
    14:00 +33°C° 0 mm 5 m/S 755 mmHg 36%
    15:00 +32°C° 0 mm 4 m/S 755 mmHg 38%
    16:00 +30°C° 0 mm 3 m/S 755 mmHg 41%
    17:00 +30°C° 0 mm 3 m/S 755 mmHg 44%
    18:00 +28°C° 0 mm 2 m/S 755 mmHg 49%
    19:00 +26°C° 0 mm 2 m/S 755 mmHg 54%
    20:00 +24°C° 0 mm 2 m/S 755 mmHg 59%
    21:00 +24°C° 0 mm 2 m/S 755 mmHg 61%
    22:00 +23°C° 0 mm 2 m/S 755 mmHg 62%
    23:00 +23°C° 0 mm 2 m/S 755 mmHg 64%

    26 Juli, Freitag

    Zeit Temperatur Niederschläge Wind Luftdruck Luftfeuchtigkeit
    00:00 +23°C° 0 mm 2 m/S 755 mmHg 65%
    01:00 +23°C° 0 mm 2 m/S 755 mmHg 65%
    02:00 +21°C° 0 mm 3 m/S 755 mmHg 66%
    03:00 +21°C° 0 mm 3 m/S 755 mmHg 67%
    04:00 +21°C° 0 mm 3 m/S 755 mmHg 68%
    05:00 +21°C° 0 mm 3 m/S 755 mmHg 69%
    06:00 +24°C° 0 mm 3 m/S 755 mmHg 62%
    07:00 +26°C° 0 mm 3 m/S 755 mmHg 56%
    08:00 +28°C° 0 mm 2 m/S 755 mmHg 49%
    09:00 +29°C° 0 mm 3 m/S 755 mmHg 46%
    10:00 +30°C° 0 mm 3 m/S 755 mmHg 43%
    11:00 +31°C° 0 mm 3 m/S 755 mmHg 40%
    12:00 +32°C° 0 mm 4 m/S 755 mmHg 43%
    13:00 +30°C° 0 mm 4 m/S 755 mmHg 47%
    14:00 +29°C° 0 mm 4 m/S 754 mmHg 51%
    15:00 +29°C° 0 mm 4 m/S 754 mmHg 51%
    16:00 +29°C° 0 mm 4 m/S 754 mmHg 51%
    17:00 +29°C° 0 mm 3 m/S 753 mmHg 51%
    18:00 +27°C° 0 mm 3 m/S 753 mmHg 59%
    19:00 +25°C° 0 mm 2 m/S 753 mmHg 66%
    20:00 +23°C° 0 mm 1 m/S 753 mmHg 73%
    21:00 +23°C° 0 mm 1 m/S 753 mmHg 76%
    22:00 +22°C° 0 mm 1 m/S 753 mmHg 78%
    23:00 +22°C° 0 mm 1 m/S 753 mmHg 80%
    Mehr zeigen